| time (UTC) | temp C | wind direction | speed KPH | gust KPH | rain 1hr cm | rain 24hr cm | rain mn cm | humidity % | barometer mb |
| 20260509213038 | 17 | 191 | 8.0 | 17.7 | 0.00 | 1.85 | 1.42 | 63 | 1005.3 |
| 20260509211537 | 16 | 214 | 8.0 | 16.1 | 0.00 | 1.85 | 1.42 | 66 | 1005.4 |
| 20260509210042 | 17 | 187 | 9.7 | 20.9 | 0.00 | 1.85 | 1.42 | 65 | 1005.4 |
| 20260509204536 | 17 | 211 | 8.0 | 25.7 | 0.00 | 1.85 | 1.42 | 68 | 1005.8 |
| 20260509203034 | 16 | 175 | 11.3 | 19.3 | 0.00 | 1.85 | 1.42 | 67 | 1005.9 |
| 20260509201540 | 16 | 175 | 11.3 | 22.5 | 0.00 | 1.85 | 1.42 | 70 | 1006.0 |
| 20260509200038 | 16 | 182 | 8.0 | 19.3 | 0.00 | 1.85 | 1.42 | 76 | 1006.2 |
| 20260509194535 | 15 | 172 | 6.4 | 14.5 | 0.00 | 1.91 | 1.42 | 78 | 1006.2 |
| 20260509193036 | 15 | 198 | 8.0 | 16.1 | 0.00 | 1.91 | 1.42 | 78 | 1006.5 |
| 20260509191550 | 14 | 176 | 6.4 | 20.9 | 0.00 | 1.91 | 1.42 | 82 | 1006.8 |
| 20260509190035 | 13 | 155 | 6.4 | 24.1 | 0.00 | 1.91 | 1.42 | 86 | 1006.7 |
| 20260509184545 | 13 | 146 | 4.8 | 17.7 | 0.00 | 1.91 | 1.42 | 89 | 1006.9 |
| 20260509183047 | 12 | 186 | 4.8 | 11.3 | 0.00 | 1.91 | 1.42 | 91 | 1006.9 |
| 20260509181536 | 12 | 205 | 4.8 | 12.9 | 0.03 | 1.91 | 1.42 | 92 | 1007.1 |
| 20260509180035 | 12 | 184 | 4.8 | 11.3 | 0.03 | 1.91 | 1.42 | 97 | 1007.2 |
| 20260509174538 | 11 | 167 | 3.2 | 8.0 | 0.03 | 1.91 | 1.42 | 96 | 1007.3 |
| 20260509173042 | 11 | 173 | 4.8 | 11.3 | 0.03 | 1.91 | 1.42 | 97 | 1007.3 |
| 20260509171535 | 10 | 199 | 4.8 | 9.7 | 0.00 | 1.88 | 1.40 | 97 | 1007.3 |
| 20260509170035 | 10 | 200 | 3.2 | 9.7 | 0.00 | 1.88 | 1.40 | 97 | 1007.4 |
| 20260509164535 | 10 | 206 | 4.8 | 14.5 | 0.00 | 1.88 | 1.40 | 97 | 1007.3 |
| 20260509163041 | 10 | 213 | 4.8 | 12.9 | 0.00 | 1.88 | 1.40 | 98 | 1007.2 |
| 20260509161536 | 10 | 172 | 4.8 | 12.9 | 0.03 | 1.88 | 1.40 | 98 | 1007.1 |
| 20260509160036 | 10 | 194 | 4.8 | 9.7 | 0.03 | 1.88 | 1.40 | 98 | 1007.0 |
| 20260509154535 | 10 | 180 | 4.8 | 9.7 | 0.03 | 1.88 | 1.40 | 98 | 1007.0 |
| 20260509153048 | 9 | 146 | 3.2 | 8.0 | 0.05 | 1.88 | 1.40 | 98 | 1007.1 |
| 20260509151541 | 9 | 181 | 3.2 | 9.7 | 0.03 | 1.85 | 1.37 | 98 | 1007.1 |
| 20260509150037 | 9 | 148 | 4.8 | 9.7 | 0.05 | 1.85 | 1.37 | 98 | 1007.1 |
| 20260509144536 | 9 | 166 | 3.2 | 11.3 | 0.05 | 1.85 | 1.37 | 98 | 1007.0 |
| 20260509143035 | 8 | 181 | 3.2 | 9.7 | 0.03 | 1.83 | 1.32 | 98 | 1007.1 |
| 20260509141535 | 8 | 147 | 1.6 | 8.0 | 0.03 | 1.83 | 1.32 | 98 | 1007.1 |
| 20260509140036 | 8 | 156 | 4.8 | 9.7 | 0.03 | 1.80 | 1.32 | 98 | 1007.3 |
| 20260509134537 | 8 | 180 | 3.2 | 14.5 | 0.05 | 1.80 | 1.32 | 98 | 1007.2 |
| 20260509133037 | 8 | 165 | 1.6 | 6.4 | 0.05 | 1.80 | 1.32 | 98 | 1007.1 |
| 20260509131535 | 8 | 153 | 3.2 | 11.3 | 0.05 | 1.80 | 1.32 | 98 | 1007.2 |
| 20260509130040 | 8 | 142 | 3.2 | 9.7 | 0.03 | 1.78 | 1.30 | 98 | 1007.2 |
| 20260509124541 | 8 | 124 | 3.2 | 6.4 | 0.00 | 1.75 | 1.27 | 98 | 1007.5 |
| 20260509123036 | 7 | 137 | 3.2 | 9.7 | 0.03 | 1.75 | 1.27 | 98 | 1007.7 |
| 20260509121535 | 7 | 121 | 1.6 | 9.7 | 0.05 | 1.75 | 1.27 | 98 | 1007.6 |
| 20260509120036 | 7 | 115 | 3.2 | 6.4 | 0.13 | 1.75 | 1.27 | 98 | 1007.6 |
| 20260509114535 | 7 | 131 | 1.6 | 3.2 | 0.18 | 1.75 | 1.27 | 98 | 1007.6 |
| 20260509113050 | 7 | 0 | 0.0 | 3.2 | 0.23 | 1.73 | 1.24 | 98 | 1007.7 |
| 20260509111539 | 7 | 0 | 1.6 | 6.4 | 0.28 | 1.68 | 1.19 | 98 | 1007.6 |
| 20260509110037 | 7 | 124 | 6.4 | 11.3 | 0.28 | 1.63 | 1.14 | 98 | 1007.5 |
| 20260509104537 | 7 | 117 | 4.8 | 9.7 | 0.28 | 1.55 | 1.07 | 98 | 1007.4 |
| 20260509103043 | 7 | 124 | 6.4 | 16.1 | 0.25 | 1.47 | 1.02 | 98 | 1007.5 |
| 20260509101554 | 7 | 127 | 4.8 | 9.7 | 0.18 | 1.40 | 0.91 | 98 | 1007.7 |
| 20260509100040 | 7 | 130 | 1.6 | 9.7 | 0.20 | 1.32 | 0.86 | 98 | 1007.7 |
| 20260509094539 | 7 | 148 | 3.2 | 9.7 | 0.18 | 1.30 | 0.79 | 98 | 1007.9 |
| 20260509093038 | 7 | 130 | 4.8 | 11.3 | 0.23 | 1.27 | 0.76 | 98 | 1008.0 |
| 20260509091536 | 7 | 124 | 4.8 | 6.4 | 0.25 | 1.24 | 0.74 | 98 | 1008.0 |
| 20260509090040 | 7 | 117 | 4.8 | 6.4 | 0.25 | 1.17 | 0.66 | 97 | 1008.1 |
| 20260509084545 | 7 | 121 | 3.2 | 11.3 | 0.18 | 1.09 | 0.58 | 98 | 1008.3 |
| 20260509083050 | 7 | 155 | 4.8 | 9.7 | 0.15 | 1.04 | 0.53 | 98 | 1008.4 |
| 20260509081537 | 7 | 109 | 3.2 | 6.4 | 0.10 | 0.99 | 0.48 | 98 | 1008.3 |
| 20260509080039 | 7 | 119 | 3.2 | 4.8 | 0.03 | 0.91 | 0.41 | 97 | 1008.1 |
| 20260509074541 | 7 | 123 | 1.6 | 4.8 | 0.13 | 0.91 | 0.41 | 97 | 1008.0 |
| 20260509073038 | 7 | 137 | 1.6 | 4.8 | 0.15 | 0.89 | 0.38 | 97 | 1008.1 |
| 20260509071544 | 7 | 123 | 3.2 | 4.8 | 0.18 | 0.89 | 0.38 | 97 | 1008.1 |
| 20260509070037 | 7 | 89 | 1.6 | 3.2 | 0.18 | 0.89 | 0.38 | 97 | 1007.9 |
| 20260509064536 | 7 | 132 | 4.8 | 9.7 | 0.10 | 0.79 | 0.28 | 97 | 1008.6 |
| 20260509063035 | 7 | 106 | 3.2 | 4.8 | 0.08 | 0.74 | 0.23 | 97 | 1008.7 |
| 20260509061543 | 7 | 121 | 1.6 | 3.2 | 0.10 | 0.71 | 0.20 | 97 | 1009.0 |
| 20260509060047 | 7 | 137 | 1.6 | 3.2 | 0.13 | 0.71 | 0.20 | 97 | 1009.3 |
| 20260509054536 | 7 | 113 | 1.6 | 6.4 | 0.13 | 0.69 | 0.18 | 97 | 1009.5 |
| 20260509053101 | 7 | 126 | 3.2 | 11.3 | 0.10 | 0.66 | 0.15 | 97 | 1009.8 |
| 20260509051542 | 7 | 135 | 3.2 | 6.4 | 0.08 | 0.61 | 0.10 | 97 | 1010.0 |
| 20260509050043 | 7 | 129 | 3.2 | 6.4 | 0.08 | 0.58 | 0.08 | 96 | 1010.1 |
| 20260509044555 | 7 | 122 | 1.6 | 4.8 | 0.05 | 0.56 | 0.05 | 96 | 1010.1 |
| 20260509043041 | 7 | 132 | 1.6 | 4.8 | 0.08 | 0.56 | 0.05 | 96 | 1010.3 |
| 20260509041536 | 7 | 129 | 3.2 | 6.4 | 0.08 | 0.53 | 0.03 | 96 | 1010.4 |
| 20260509040041 | 7 | 118 | 3.2 | 6.4 | 0.10 | 0.51 | 0.00 | 96 | 1010.6 |
| 20260509034540 | 7 | 145 | 1.6 | 6.4 | 0.10 | 0.51 | 0.51 | 96 | 1010.7 |
| 20260509033038 | 7 | 123 | 3.2 | 3.2 | 0.10 | 0.48 | 0.48 | 96 | 1010.8 |
| 20260509031553 | 7 | 128 | 1.6 | 4.8 | 0.10 | 0.46 | 0.46 | 95 | 1010.9 |
| 20260509030056 | 7 | 196 | 1.6 | 4.8 | 0.08 | 0.41 | 0.41 | 96 | 1011.3 |
| 20260509024540 | 7 | 141 | 0.0 | 3.2 | 0.13 | 0.41 | 0.41 | 95 | 1011.1 |
| 20260509023040 | 7 | 0 | 0.0 | 3.2 | 0.10 | 0.38 | 0.38 | 95 | 1011.0 |
| 20260509021540 | 7 | 103 | 1.6 | 4.8 | 0.10 | 0.36 | 0.36 | 95 | 1010.7 |
| 20260509020040 | 7 | 137 | 0.0 | 3.2 | 0.08 | 0.33 | 0.33 | 94 | 1010.9 |
| 20260509014536 | 7 | 0 | 0.0 | 0.0 | 0.05 | 0.28 | 0.28 | 94 | 1010.8 |
| 20260509013035 | 7 | 0 | 0.0 | 3.2 | 0.10 | 0.28 | 0.28 | 93 | 1010.5 |
| 20260509011535 | 7 | 0 | 1.6 | 4.8 | 0.10 | 0.25 | 0.25 | 93 | 1010.2 |
| 20260509010036 | 7 | 0 | 0.0 | 1.6 | 0.13 | 0.25 | 0.25 | 91 | 1010.2 |
| 20260509004548 | 8 | 0 | 0.0 | 4.8 | 0.13 | 0.23 | 0.23 | 90 | 1010.2 |
| 20260509003041 | 8 | 202 | 3.2 | 6.4 | 0.08 | 0.18 | 0.18 | 89 | 1010.6 |
| 20260509001535 | 8 | 217 | 0.0 | 4.8 | 0.05 | 0.15 | 0.15 | 85 | 1009.9 |
| 20260509000041 | 9 | 206 | 3.2 | 6.4 | 0.00 | 0.10 | 0.10 | 81 | 1009.8 |
| 20260508234538 | 10 | 215 | 1.6 | 8.0 | 0.00 | 0.10 | 0.10 | 77 | 1009.9 |
| 20260508233039 | 10 | 207 | 4.8 | 11.3 | 0.00 | 0.10 | 0.10 | 76 | 1009.7 |
| 20260508231533 | 10 | 196 | 6.4 | 12.9 | 0.00 | 0.10 | 0.10 | 75 | 1009.5 |
| 20260508230039 | 10 | 155 | 4.8 | 8.0 | 0.00 | 0.10 | 0.10 | 76 | 1009.6 |
| 20260508224548 | 10 | 198 | 4.8 | 12.9 | 0.03 | 0.10 | 0.10 | 79 | 1009.7 |
| 20260508223047 | 10 | 209 | 4.8 | 14.5 | 0.03 | 0.10 | 0.10 | 79 | 1009.8 |
| 20260508221536 | 10 | 168 | 6.4 | 11.3 | 0.03 | 0.10 | 0.10 | 81 | 1009.5 |
| 20260508220044 | 10 | 198 | 1.6 | 9.7 | 0.03 | 0.10 | 0.10 | 82 | 1009.5 |
| 20260508214535 | 11 | 183 | 4.8 | 17.7 | 0.00 | 0.08 | 0.08 | 79 | 1009.5 |